Location: Corcelles
(46.1547°N, 4.7234°E)
Time: 03:53:59
(UTC+00:00)

Cosmos 1980 Rocket - Pass Details

Date: 14 July 2020
Orbit: 828 x 851 km, 71.0° (Epoch: 06 August)

Event Time Altitude Azimuth Distance (km) Brightness Sun altitude
Rises 01:40:02 0° 336° (NNW) 3,429 5.9 -17.5°
Reaches altitude 10° 01:42:34 10° 342° (NNW) 2,489 5.2 -17.3°
Maximum altitude 01:48:08 51° 58° (ENE) 1,060 3.1 -16.9°
Drops below altitude 10° 01:53:39 10° 134° (SE) 2,466 4.5 -16.4°
Sets 01:56:10 0° 139° (SE) 3,395 5.2 -16.2°
